Weather History for Jacksonville, FL

Change the Weather History Date:

Wednesday, December 12, 2012

  Actual Average Record
Temperature  
Mean Temperature 60 °F 56 °F  
Max Temperature 64 °F 67 °F 83 °F (1961)
Min Temperature 56 °F 45 °F 22 °F (1962)
Degree Days  
Heating Degree Days 5 10  
Month to date heating degree days 22 106  
Since 1 July heating degree days 270 279  
Cooling Degree Days 0 1  
Month to date cooling degree days 13 12  
Year to date cooling degree days 2756 2656  
Growing Degree Days 10 (Base 50)    
Moisture  
Dew Point 56 °F    
Average Humidity 95    
Maximum Humidity 100    
Minimum Humidity 90    
Precipitation  
Precipitation 0.82 in 0.09 in 2.72 in (1997)
Month to date precipitation 1.10 1.05  
Year to date precipitation 52.20 50.64  
Snow  
Snow 0.00 in 0.00 in T in (1962)
Month to date snowfall 0.0 0.0  
Since 1 July snowfall 0.0 0.0  
Snow Depth 0.00 in    
Sea Level Pressure  
Sea Level Pressure 30.09 in    
Wind  
Wind Speed 5 mph (North)    
Max Wind Speed 16 mph    
Max Gust Speed 20 mph    
Visibility 5 miles    
Events Rain    
T = Trace of Precipitation, MM = Missing Value Source: NWS Daily Summary

Daily Weather History Graph

Daily Weather History Graph

Search for Another Location

Airport:

Trip Planner

Search our weather history database for the weather conditions in past years. The results will help you decide how hot, cold, wet, or windy it might be!

Date:

Astronomy

Dec. 12, 2012 Rise Set
Actual Time 7:14 AM EST 5:26 PM EST
Civil Twilight 6:48 AM EST 5:53 PM EST
Nautical Twilight 6:18 AM EST 6:23 PM EST
Astronomical Twilight 5:48 AM EST 6:52 PM EST
Moon 6:18 AM EST (12/12) 5:01 PM EST (12/12)
Length of Visible Light 11h 05m
Length of Day
10h 12m
Waning Crescent, 1% of the Moon is Illuminated
Dec 12
Waning Crescent
Dec 13
New
Dec 20
First Quarter
Dec 28
Full
Jan 4
Last Quarter

Hourly Weather History & Observations

Time (EST) Temp. Dew Point Humidity Pressure Visibility Wind Dir Wind Speed Gust Speed Precip Events Conditions
12:56 AM 62.1 °F 60.1 °F 93% 30.05 in 7.0 mi North 4.6 mph - N/A   Overcast
1:51 AM 62.6 °F 60.8 °F 94% 30.06 in 4.0 mi NW 10.4 mph - N/A   Overcast
1:56 AM 61.0 °F 60.1 °F 97% 30.07 in 2.0 mi NW 10.4 mph - N/A   Overcast
2:34 AM 60.8 °F 57.2 °F 88% 30.06 in 2.0 mi NNW 9.2 mph - N/A   Overcast
2:56 AM 60.1 °F 57.9 °F 93% 30.06 in 2.0 mi North 10.4 mph - N/A   Overcast
3:56 AM 57.9 °F 55.9 °F 93% 30.04 in 2.0 mi North 8.1 mph - 0.00 in   Overcast
4:56 AM 57.9 °F 55.9 °F 93% 30.04 in 2.0 mi NE 5.8 mph - 0.00 in   Overcast
5:03 AM 57.2 °F 55.4 °F 94% 30.03 in 6.0 mi NE 5.8 mph - N/A   Overcast
5:44 AM 57.2 °F 55.4 °F 94% 30.06 in 2.0 mi North 3.5 mph - 0.02 in Rain Light Rain
5:56 AM 57.0 °F 55.0 °F 93% 30.07 in 2.0 mi Calm Calm - 0.04 in Rain Heavy Rain
6:53 AM 57.2 °F 55.4 °F 94% 30.07 in 5.0 mi NNE 4.6 mph - 0.11 in   Overcast
6:56 AM 57.0 °F 55.9 °F 96% 30.08 in 5.0 mi North 4.6 mph - 0.11 in Rain Light Rain
7:13 AM 57.2 °F 55.4 °F 94% 30.10 in 2.5 mi Variable 3.5 mph - 0.04 in Rain Heavy Rain
7:47 AM 57.2 °F 55.4 °F 94% 30.09 in 4.0 mi NNE 4.6 mph - 0.16 in Rain Light Rain
7:54 AM 57.2 °F 55.4 °F 94% 30.09 in 2.0 mi North 5.8 mph - 0.17 in Rain Rain
7:56 AM 57.0 °F 55.0 °F 93% 30.09 in 2.0 mi North 5.8 mph - 0.17 in Rain Light Rain
8:46 AM 57.2 °F 55.4 °F 94% 30.09 in 2.0 mi NE 6.9 mph - 0.02 in   Overcast
8:56 AM 57.0 °F 55.9 °F 96% 30.11 in 2.0 mi Calm Calm - 0.02 in   Overcast
9:22 AM 57.2 °F 55.4 °F 94% 30.11 in 1.5 mi East 3.5 mph - 0.04 in Rain Rain
9:56 AM 57.9 °F 55.9 °F 93% 30.12 in 1.5 mi NNE 4.6 mph - 0.13 in Rain Heavy Rain
10:36 AM 57.2 °F 57.2 °F 100% 30.13 in 1.5 mi West 5.8 mph - 0.09 in Rain Light Rain
10:56 AM 59.0 °F 57.9 °F 96% 30.12 in 1.5 mi NNE 6.9 mph - 0.16 in Rain Light Rain
11:17 AM 60.8 °F 57.2 °F 88% 30.12 in 2.5 mi NW 4.6 mph - 0.01 in   Overcast
11:56 AM 59.0 °F 57.0 °F 93% 30.12 in 2.5 mi Variable 3.5 mph - 0.01 in   Overcast
12:56 PM 57.9 °F 55.9 °F 93% 30.09 in 2.5 mi NNW 6.9 mph - N/A   Overcast
1:31 PM 57.2 °F 55.4 °F 94% 30.08 in 2.5 mi North 6.9 mph - N/A   Overcast
1:38 PM 57.2 °F 55.4 °F 94% 30.08 in 10.0 mi NNW 9.2 mph - N/A   Overcast
1:56 PM 57.0 °F 55.0 °F 93% 30.08 in 10.0 mi NNW 6.9 mph - N/A   Overcast
2:56 PM 57.0 °F 55.0 °F 93% 30.09 in 9.0 mi NNW 4.6 mph - N/A   Overcast
3:56 PM 57.2 °F 55.4 °F 94% 30.09 in 8.0 mi North 3.5 mph - N/A   Overcast
4:56 PM 57.9 °F 55.9 °F 93% 30.10 in 8.0 mi NNW 3.5 mph - N/A   Overcast
5:18 PM 57.2 °F 55.4 °F 94% 30.13 in 1.5 mi WNW 9.2 mph - 0.02 in Rain Heavy Rain
5:56 PM 57.0 °F 55.9 °F 96% 30.09 in 1.0 mi Variable 4.6 mph - 0.15 in Rain Light Rain
6:19 PM 57.2 °F 55.4 °F 94% 30.09 in 10.0 mi East 6.9 mph - 0.03 in   Overcast
6:56 PM 57.0 °F 55.9 °F 96% 30.07 in 10.0 mi NE 5.8 mph - 0.03 in   Overcast
7:44 PM 57.2 °F 55.4 °F 94% 30.08 in 10.0 mi NE 5.8 mph - N/A   Overcast
7:56 PM 57.9 °F 57.0 °F 97% 30.09 in 10.0 mi NE 4.6 mph - N/A   Overcast
8:56 PM 59.0 °F 57.9 °F 96% 30.10 in 9.0 mi ENE 6.9 mph - N/A   Overcast
9:56 PM 60.1 °F 57.9 °F 93% 30.11 in 10.0 mi NE 5.8 mph - N/A   Overcast
10:56 PM 60.1 °F 59.0 °F 96% 30.12 in 10.0 mi NW 3.5 mph - N/A   Overcast
11:56 PM 59.0 °F 57.9 °F 96% 30.12 in 5.0 mi NNW 8.1 mph - 0.00 in Rain Light Rain